Wind_Speed
10 12 14 12 11 10 4 2 1 2 2 5 2 2 1 2 1 3 3 2 1 1 1 4 5 5 6 7 9 8 7 2 2 2 2 5 14 15 11 13 15 18 19 19 20 20 21 21 21 23 24 25 25 25 25 25 25 25 25 27 27 25 26 25 20 23 25 25 24 23 22 21 21 21 20 19 18 18 16 15 14 13 13 12 12 11 11 11 10 9 9 8 8 8 8 8 7
12 13 13 12 11 7 1 1 3 3 4 5 1 2 3 0 1 4 4 2 2 3 5 8 8 8 10 11 8 5 8 6 2 3 4 13 18 14 13 15 17 19 17 18 20 20 21 22 22 23 24 25 25 25 25 26 26 25 25 26 27 26 25 24 21 23 24 23 23 22 21 21 21 20 20 19 18 17 15 14 13 12 12 11 11 11 10 10 9 8 8 8 8 8 7 7 6
14 14 14 12 6 1 2 2 3 3 5 4 1 2 5 3 3 4 3 4 6 6 8 8 7 5 6 7 4 3 5 5 7 6 7 15 15 13 16 16 19 21 19 18 20 21 22 23 24 24 24 25 24 24 25 25 26 26 25 25 26 26 25 24 23 23 23 22 21 21 21 20 20 20 19 18 17 15 14 13 12 12 11 10 10 10 9 9 8 8 7 7 7 7 6 6 5
15 15 15 11 3 2 1 2 3 4 5 4 3 2 5 6 6 6 5 6 6 5 5 5 4 4 5 8 4 5 6 4 6 6 6 10 13 18 18 18 21 22 21 19 20 21 21 24 25 24 23 24 24 24 24 24 24 24 24 24 24 24 23 23 23 22 21 21 20 20 20 20 19 18 17 16 15 14 13 12 11 11 10 10 9 9 8 8 7 7 6 6 6 5 5 5 4
15 14 13 8 2 1 1 2 2 4 5 4 4 3 5 8 9 8 6 6 4 3 4 4 3 3 6 6 2 3 5 5 4 5 7 11 18 22 19 21 22 22 22 19 20 20 20 23 25 24 23 24 25 25 24 23 23 22 22 21 21 21 21 21 20 20 19 19 18 18 18 18 17 16 15 14 13 12 11 11 10 10 10 9 8 8 7 6 6 5 5 4 4 4 4 4 4
15 11 8 3 1 1 2 3 3 4 4 5 7 5 7 9 9 9 8 7 7 6 6 6 6 6 5 3 3 3 4 6 5 5 11 17 21 22 21 24 22 21 22 21 20 20 20 20 23 24 23 25 25 25 25 24 23 21 21 20 20 19 19 19 19 18 17 17 16 16 16 16 15 15 13 12 11 10 10 9 9 9 9 8 7 6 5 5 4 4 3 3 3 3 3 3 3
15 8 2 1 2 1 4 5 5 4 2 5 10 9 9 8 9 11 9 7 8 8 7 7 8 9 5 2 4 5 7 8 6 9 15 20 21 22 23 23 22 22 23 24 24 22 21 20 22 22 22 24 24 24 23 22 22 21 21 20 19 19 19 18 17 17 16 15 15 15 14 14 13 13 12 11 10 10 9 9 9 8 8 7 6 5 4 3 3 2 2 1 2 2 2 2 2
14 6 1 2 1 2 4 5 4 3 1 4 9 11 12 11 10 9 7 5 5 5 7 7 6 8 5 3 4 5 11 11 11 16 19 21 22 22 23 23 23 23 23 24 24 24 23 22 22 21 22 22 21 21 20 20 20 19 19 18 18 18 18 17 17 16 15 15 14 14 13 13 12 11 11 10 10 9 9 9 8 8 7 6 5 3 3 2 2 1 1 0 0 0 1 0 1
10 4 0 2 2 4 4 4 3 3 6 8 10 11 12 11 9 10 9 5 5 5 6 6 2 6 6 7 6 4 10 15 18 19 18 20 21 22 22 23 24 24 24 23 23 23 22 22 23 22 21 21 20 19 18 18 17 17 17 17 17 16 16 16 15 15 14 14 13 13 12 12 11 10 10 10 10 10 9 9 8 7 6 5 3 2 2 1 1 1 0 1 1 1 1 1 1
4 2 1 2 3 5 4 4 4 4 7 9 10 12 10 9 8 10 10 7 7 6 6 6 6 9 10 7 4 3 11 20 22 19 18 20 19 21 21 22 24 25 24 23 22 21 21 20 21 21 21 20 19 18 18 17 17 16 15 15 15 14 14 14 14 14 13 13 12 12 11 11 11 10 10 10 10 10 9 9 7 6 5 3 2 1 1 1 1 0 1 2 3 2 2 3 2
1 2 1 3 4 4 3 4 5 4 7 7 7 9 8 9 10 9 10 8 6 7 8 8 9 11 11 6 2 6 17 21 20 19 19 19 18 20 21 21 23 24 24 23 22 21 20 19 20 20 20 19 19 18 17 17 16 16 15 14 14 13 13 13 13 13 13 12 12 11 11 11 11 11 10 10 10 9 8 7 6 5 3 2 2 2 2 2 2 2 3 3 4 3 3 3 3
1 1 3 4 3 3 3 5 5 5 6 8 7 6 7 9 11 10 11 9 7 9 7 5 6 9 9 4 2 10 17 17 18 21 20 18 18 21 22 22 24 24 24 23 22 21 20 19 19 19 19 19 18 18 17 16 16 15 15 14 14 13 13 13 13 13 12 12 11 11 11 11 10 10 10 9 9 8 8 7 6 4 3 3 3 3 3 3 3 4 4 5 5 5 4 4 3
2 2 4 3 3 4 4 5 6 6 5 6 7 7 7 8 11 12 10 10 9 8 5 6 8 7 7 4 4 9 12 14 19 21 20 19 17 21 22 23 24 24 23 22 21 20 20 19 19 19 19 18 18 17 17 16 16 15 15 14 14 14 13 13 13 12 12 12 11 11 11 11 10 10 9 9 8 8 7 6 5 4 3 4 4 4 4 4 5 5 6 7 6 6 5 5 4
3 2 4 2 1 4 4 5 6 6 4 5 7 9 7 5 11 13 12 12 6 5 7 8 8 8 7 6 6 6 9 16 19 19 19 18 17 19 21 23 24 24 22 22 21 20 20 20 19 19 19 18 18 17 17 16 16 16 15 15 15 14 14 14 13 13 12 12 11 11 10 10 10 9 9 9 8 8 7 6 5 5 4 5 5 5 5 5 6 7 8 9 8 7 6 6 5
4 1 4 3 2 2 3 5 7 7 5 7 8 9 6 4 11 13 13 12 4 6 10 7 5 6 7 8 7 8 14 20 20 19 19 16 16 17 20 21 22 23 22 21 20 20 20 19 19 18 19 19 18 17 17 16 16 16 15 15 15 15 14 14 13 13 12 11 11 11 10 9 9 8 8 8 8 8 7 7 6 6 6 6 6 6 6 6 7 9 9 10 10 10 8 7 7
3 2 5 3 1 2 3 4 7 7 6 8 10 9 8 6 8 8 6 7 8 9 6 5 4 2 7 7 10 16 22 24 21 21 20 17 16 16 18 19 20 21 21 21 20 20 20 19 19 18 19 18 18 17 17 17 16 16 15 15 15 15 14 14 13 12 12 11 11 11 10 9 9 8 8 8 8 7 7 7 7 7 7 7 7 7 7 8 9 10 9 10 11 11 9 8 8
2 3 4 2 2 3 4 5 6 8 8 10 10 10 12 8 4 5 5 9 13 10 2 3 1 3 8 8 16 25 25 24 23 23 21 19 17 17 16 17 18 19 19 20 20 20 20 20 19 19 19 19 18 18 18 17 16 15 15 15 14 14 13 13 13 12 12 11 11 10 10 10 10 9 9 8 8 8 8 8 8 8 8 8 8 9 9 10 10 10 10 10 11 11 10 9 7
2 3 3 2 3 4 5 6 6 10 11 12 13 13 15 12 7 6 8 10 11 8 5 6 6 7 10 15 24 27 25 25 25 24 20 18 18 17 17 17 18 18 19 19 20 21 21 21 21 20 20 19 19 18 18 18 16 15 15 14 13 13 13 12 13 12 12 11 11 11 11 11 11 10 10 9 9 8 8 8 9 9 8 9 9 10 11 11 10 11 11 11 12 12 11 10 7
3 3 3 3 4 5 5 7 9 12 14 13 13 12 13 15 12 9 9 10 9 9 7 7 9 10 12 18 25 25 25 25 25 24 20 18 18 17 17 18 18 18 19 20 21 22 22 22 22 22 21 20 20 19 19 18 17 16 15 15 14 14 13 13 13 13 13 12 12 12 12 12 11 11 10 10 8 8 8 8 9 9 9 10 10 11 12 11 11 11 11 12 12 12 12 11 9
2 3 3 6 6 5 5 10 12 13 16 15 12 10 11 14 13 9 11 12 9 9 10 9 10 12 14 15 20 24 24 23 24 23 19 18 18 18 18 19 20 21 22 21 22 23 24 24 24 23 22 21 21 20 19 19 18 17 16 15 15 15 14 14 14 14 14 13 13 13 12 12 11 11 10 9 9 9 9 10 10 10 11 11 11 12 12 12 12 12 11 12 12 12 11 10 9
1 4 6 7 6 5 5 11 12 14 16 15 13 12 12 12 10 9 13 12 6 8 11 14 15 15 16 16 17 21 21 21 22 21 19 19 18 18 19 21 22 23 24 22 23 24 25 25 25 24 23 22 21 20 20 19 18 17 17 16 16 16 15 15 14 14 14 14 13 13 12 12 11 11 10 10 10 10 11 11 11 11 12 12 13 13 13 13 12 12 11 10 10 10 9 8 8
2 6 9 6 8 6 6 11 12 13 13 12 15 14 13 10 9 13 17 12 8 9 11 15 18 16 16 17 17 18 18 18 19 19 18 19 19 19 20 21 21 22 23 23 24 25 25 25 24 24 24 23 22 21 20 20 19 18 18 17 16 16 15 15 15 15 14 14 14 13 12 12 12 12 11 11 11 11 12 12 12 12 12 12 13 13 13 12 11 11 10 9 9 9 9 8 8
3 6 7 9 10 8 7 11 13 13 12 13 14 12 12 11 9 12 13 8 9 11 11 15 17 18 19 17 16 15 15 15 17 20 19 20 20 20 22 21 21 23 23 24 25 25 25 25 24 24 24 23 22 21 20 20 20 18 18 17 16 16 16 15 15 15 15 14 14 13 13 13 13 12 12 12 12 12 13 13 13 12 12 12 12 12 12 10 10 9 9 9 9 10 10 10 9
6 5 5 10 9 8 9 12 13 12 12 12 12 12 13 14 11 9 4 3 9 13 12 14 16 20 21 16 14 14 15 16 19 21 22 22 22 23 23 22 23 24 23 24 25 25 26 25 24 24 23 23 22 22 21 20 19 18 18 17 16 16 16 16 16 16 15 14 14 14 14 13 13 13 13 13 12 13 13 13 13 13 13 12 11 11 11 10 9 9 9 9 9 10 11 11 11
4 4 5 6 6 9 11 13 13 12 11 10 12 12 12 13 11 7 5 7 12 14 14 14 15 17 16 15 15 14 14 16 19 21 22 22 23 23 22 23 23 24 24 25 25 26 26 25 25 25 24 24 22 22 21 20 19 18 18 18 17 17 17 16 15 15 15 15 14 14 14 14 14 14 14 13 13 13 13 12 13 13 13 11 11 11 11 10 9 9 10 10 10 11 12 12 12
2 4 6 8 8 11 13 13 14 12 9 11 13 10 8 10 10 5 5 11 13 15 16 15 15 15 14 14 15 14 13 15 18 21 21 21 23 22 22 24 24 25 26 25 26 26 26 26 25 26 25 24 22 22 21 20 19 19 19 19 18 17 17 16 15 15 15 15 15 15 15 15 15 15 15 14 14 14 13 13 12 12 11 11 11 10 9 9 10 10 10 11 11 12 13 13 13
2 6 8 13 12 11 13 13 12 11 8 13 15 10 9 8 7 4 5 11 15 16 16 15 15 15 14 12 12 13 13 16 20 21 19 19 21 22 23 24 24 26 26 26 27 26 26 26 26 25 25 23 22 21 20 19 19 19 19 18 18 17 16 15 15 15 15 15 15 15 15 16 16 16 15 14 14 14 14 13 12 11 11 10 10 9 8 9 10 11 11 11 10 11 12 12 13
6 12 10 11 12 9 13 13 11 10 5 11 16 11 6 3 2 8 11 13 15 17 16 15 14 13 13 13 11 10 12 17 21 20 18 18 20 22 23 24 26 25 26 27 28 27 26 26 26 25 25 24 22 21 20 20 19 19 19 18 18 17 16 16 16 16 16 16 16 16 16 16 16 16 16 15 15 15 15 14 13 12 11 9 8 9 9 9 11 12 13 12 11 11 12 13 13
6 14 13 8 10 9 11 12 11 10 6 10 16 9 3 1 4 12 14 14 15 16 16 14 13 12 11 12 10 9 12 17 19 18 20 22 23 24 25 27 28 27 27 28 28 27 27 27 26 25 25 24 24 22 21 20 19 18 18 18 17 16 16 17 17 17 16 16 16 16 16 16 16 16 16 16 17 16 15 14 13 12 10 8 9 10 10 11 12 13 14 14 13 12 13 13 12
3 9 13 8 8 6 7 9 11 11 10 13 12 5 3 2 8 14 14 16 16 14 14 13 12 11 11 11 10 10 12 15 16 19 24 25 26 27 28 29 31 30 29 28 28 28 28 27 26 25 25 25 25 24 22 20 19 18 18 18 17 16 17 17 18 17 16 16 16 16 16 16 16 16 17 18 18 17 15 14 13 11 10 8 9 10 10 12 14 14 14 14 14 13 13 13 13
1 3 8 6 7 6 6 5 11 11 8 8 9 3 6 4 10 15 14 16 17 15 14 13 12 11 11 10 11 11 12 15 19 23 26 28 29 29 30 30 31 30 28 29 30 30 28 27 27 26 26 25 25 25 24 21 19 19 19 18 18 17 18 18 18 17 16 15 15 15 16 16 16 17 17 17 18 17 14 13 12 10 11 10 10 11 10 12 13 12 12 12 13 12 13 13 13
2 2 4 3 5 7 6 6 11 15 10 5 7 4 4 6 12 14 15 16 17 16 14 13 13 12 12 10 11 11 11 15 22 25 27 29 30 30 31 31 31 31 30 30 31 30 29 28 28 28 27 26 26 26 24 21 19 19 18 18 18 18 18 18 18 16 15 14 14 14 14 15 15 15 15 16 16 15 13 13 12 11 11 11 11 11 10 10 10 10 10 11 11 12 13 13 13
3 2 4 5 5 7 5 6 8 14 14 4 3 6 3 6 12 14 15 16 16 15 14 15 14 13 13 11 10 11 10 12 16 21 26 29 30 31 32 32 32 33 32 32 31 30 30 29 28 28 28 27 26 26 24 22 20 19 18 18 18 18 17 16 15 14 13 11 11 12 13 13 13 12 13 13 13 13 12 13 12 11 10 9 8 9 8 7 9 10 10 10 11 12 13 13 13
4 2 4 5 7 10 7 6 8 8 14 6 3 7 6 7 13 15 15 17 16 14 15 15 13 12 12 11 10 10 11 11 12 17 25 29 31 32 33 33 34 35 34 33 32 31 31 30 29 28 27 27 27 27 26 24 22 21 19 19 19 18 17 15 13 13 11 9 8 9 10 11 10 9 10 10 10 10 11 11 10 8 7 6 5 6 6 6 7 9 10 10 10 12 12 12 12
6 6 5 3 7 12 10 8 6 8 11 8 6 7 6 8 13 15 15 16 15 14 15 14 13 13 12 11 10 10 11 12 13 19 26 29 31 32 32 33 34 35 34 33 33 32 31 31 30 29 28 27 27 27 27 25 23 21 20 18 17 16 15 14 13 12 9 8 7 6 7 9 8 7 6 6 6 7 7 7 5 4 3 4 4 5 5 7 7 8 10 9 10 11 11 11 10
7 6 5 7 7 9 10 7 8 12 8 6 9 8 8 11 14 14 14 15 13 13 13 12 12 12 12 11 10 10 10 11 15 22 27 30 31 32 32 32 33 34 34 33 33 32 32 31 30 30 29 28 28 27 27 25 23 22 20 18 16 15 14 13 12 11 10 10 8 7 7 7 6 5 5 5 4 4 4 3 2 2 3 4 5 6 7 9 9 9 9 8 10 10 10 10 9
6 2 3 7 10 8 8 7 9 12 8 5 7 9 11 14 16 16 14 13 12 12 12 11 12 12 12 12 11 11 10 10 15 21 24 29 31 31 32 31 32 32 32 33 32 32 33 32 31 31 30 30 29 29 27 26 24 22 20 19 17 15 14 13 12 12 12 12 10 8 7 5 4 6 6 6 6 5 4 3 3 3 4 5 7 9 9 10 9 8 7 6 8 9 9 8 7
4 4 2 3 6 7 6 8 11 10 6 4 5 7 10 13 15 14 13 14 14 14 14 13 14 13 12 13 13 12 8 7 10 14 18 25 29 30 30 30 31 32 31 32 33 34 33 32 33 32 31 31 30 30 29 27 26 24 22 21 19 17 15 14 13 13 13 13 11 9 7 5 5 7 6 6 6 5 4 3 3 3 4 6 8 8 8 8 7 6 6 6 6 7 8 5 6
3 4 4 2 4 1 1 6 13 10 4 5 7 8 9 10 13 14 15 16 14 15 16 16 15 14 12 13 13 12 9 7 9 11 14 20 25 28 29 29 32 33 33 33 34 34 33 33 33 33 32 32 31 31 30 28 27 25 23 21 19 18 16 15 14 14 13 13 12 10 8 6 7 7 7 6 5 5 5 4 4 3 4 6 6 5 5 4 4 4 4 4 4 5 5 3 4
4 3 5 2 3 2 1 6 12 8 2 5 8 5 4 5 6 9 13 14 11 13 15 14 14 15 15 15 14 13 12 10 10 11 12 16 21 25 28 29 31 32 31 32 32 33 33 33 34 34 34 33 32 32 30 29 26 24 23 20 18 16 15 14 14 12 11 11 11 10 9 9 9 9 7 6 6 6 5 4 3 2 3 4 3 2 3 2 2 1 1 2 3 4 4 3 3
4 4 5 4 4 6 4 5 10 3 5 5 8 4 3 3 6 8 9 9 9 10 12 12 12 14 15 14 13 14 14 13 13 13 12 14 18 22 27 30 30 30 31 32 33 33 33 34 34 34 34 33 32 32 30 28 25 23 21 18 16 15 13 13 13 10 9 9 9 9 9 9 10 9 7 6 6 5 4 3 2 2 2 2 1 2 2 1 1 1 1 2 2 3 3 3 3
3 4 7 7 8 8 3 8 10 5 2 4 9 4 5 4 7 9 7 9 10 8 10 13 13 13 12 11 12 12 13 13 14 15 14 14 17 21 25 28 30 30 32 34 35 34 33 32 32 32 32 32 32 31 29 28 26 24 22 20 18 16 15 14 15 13 11 10 9 9 9 9 10 9 7 6 5 4 4 3 3 2 2 2 1 3 3 1 1 1 2 2 2 1 2 3 3
2 5 8 8 10 10 8 11 10 5 3 7 9 7 3 3 8 10 8 9 11 8 10 14 13 12 12 11 12 12 11 11 12 13 14 16 18 20 22 27 30 31 33 35 34 34 33 32 31 31 31 32 31 31 30 29 27 25 24 23 22 21 19 17 16 14 13 11 10 10 10 10 9 8 7 6 5 5 4 4 5 4 2 2 2 3 2 1 1 2 2 2 1 0 1 2 2
3 5 8 9 11 11 11 12 10 6 3 3 6 3 2 3 8 10 9 9 11 11 12 13 13 13 13 13 13 13 14 13 12 13 14 16 20 23 24 28 31 33 34 34 33 34 33 32 32 31 31 31 31 30 30 30 28 26 25 24 23 23 21 18 16 15 13 12 11 11 11 10 10 9 8 7 6 5 5 5 6 5 3 3 3 2 1 0 1 1 1 1 0 1 1 1 1
7 7 8 9 11 11 11 11 9 5 5 3 6 3 3 4 5 6 9 10 12 15 16 16 14 15 15 15 15 14 15 15 14 15 16 17 21 26 29 31 32 34 34 35 35 34 34 33 32 31 31 31 30 30 30 30 28 26 26 26 24 23 21 19 18 16 14 13 12 12 11 10 11 10 8 6 6 6 5 5 6 5 4 3 3 2 2 1 1 0 1 2 2 2 2 2 1
7 5 6 4 6 8 8 8 6 4 5 6 11 8 4 5 3 5 7 9 13 16 17 16 15 15 15 15 15 15 14 13 14 15 15 19 25 29 30 31 32 33 35 36 36 35 34 33 32 32 32 32 31 30 30 29 28 27 27 26 25 23 20 19 18 16 15 14 13 13 11 11 11 10 8 7 7 7 6 5 5 5 4 4 2 1 1 2 2 2 2 3 3 3 2 2 1
5 1 3 3 1 1 2 1 3 4 3 7 14 15 9 4 4 5 8 12 18 17 14 14 13 14 16 15 15 15 14 12 13 14 14 19 26 28 29 30 31 32 33 35 35 34 34 33 33 33 33 32 32 31 30 29 29 28 27 26 25 23 22 21 19 17 16 16 15 14 13 12 12 10 8 7 7 6 6 6 5 5 5 5 3 2 1 2 3 3 3 3 2 2 2 2 1
4 1 2 1 3 4 5 4 3 4 6 7 12 14 10 6 5 7 13 18 20 18 16 17 18 17 17 16 15 15 14 13 13 14 14 16 18 21 24 27 29 30 31 33 34 34 34 34 34 33 33 33 33 32 31 29 29 28 27 26 25 24 24 22 21 19 18 17 16 15 14 13 12 11 9 8 7 6 6 6 6 7 8 7 5 3 2 2 3 4 4 3 2 2 2 2 2
5 3 4 4 2 2 1 1 1 4 6 5 9 11 8 7 7 10 16 19 19 18 17 18 19 19 18 17 16 14 13 13 14 13 13 13 13 15 21 24 26 28 30 32 33 33 33 34 34 34 34 34 34 33 32 30 30 29 28 27 25 25 24 23 21 20 19 18 17 16 16 15 13 11 10 9 8 7 7 7 8 9 9 9 6 4 3 3 4 4 5 5 4 3 4 4 3
6 5 5 5 3 2 3 3 0 2 6 6 6 9 5 5 5 9 16 20 22 20 19 18 17 19 19 18 17 14 13 14 13 13 13 12 12 16 21 25 26 28 30 32 33 33 34 33 34 35 34 35 35 34 33 32 31 29 28 28 26 25 24 23 21 20 19 18 18 18 17 16 14 12 12 11 10 8 8 9 9 8 8 7 6 6 5 4 4 5 5 5 5 5 5 5 4
5 5 6 6 5 5 4 4 4 5 6 3 2 5 6 5 7 10 16 21 21 18 18 14 12 15 17 15 15 14 14 14 13 13 13 13 16 20 23 25 27 30 32 33 33 34 34 34 35 36 35 35 35 35 34 33 32 30 29 29 27 25 24 23 21 20 19 19 19 19 18 17 15 13 13 12 11 9 8 8 7 6 5 5 6 6 5 5 5 5 5 4 4 5 6 6 5
4 4 5 5 7 6 3 4 6 5 3 2 2 4 6 5 6 5 7 14 14 13 14 9 9 12 13 11 12 13 13 14 13 13 14 15 17 21 23 25 28 30 31 32 33 35 36 35 36 37 37 37 36 36 36 34 33 32 30 29 27 26 24 22 21 21 20 20 20 19 18 17 14 13 12 12 11 10 8 7 7 6 6 5 5 6 6 6 7 7 7 6 5 5 6 6 5
3 4 4 5 6 7 4 2 1 3 3 4 3 4 4 2 5 7 3 6 8 10 12 12 12 14 13 12 12 13 13 14 14 15 15 15 16 21 24 26 28 29 30 33 36 38 39 38 37 38 36 37 37 38 37 35 34 33 31 30 28 26 24 23 23 22 21 20 20 19 18 17 15 13 13 12 13 12 10 8 8 8 7 7 7 7 7 7 9 10 10 10 8 7 7 8 7
4 5 7 4 2 3 3 2 1 3 3 4 2 6 4 3 4 5 3 3 8 12 15 16 14 13 14 13 13 14 15 15 16 15 14 13 15 20 25 27 30 33 34 37 39 40 40 39 39 39 38 39 40 39 38 37 36 34 32 31 29 27 25 24 24 22 20 20 20 20 19 18 16 15 14 13 13 13 11 10 9 9 9 9 9 8 9 9 10 10 11 11 10 9 9 9 9
5 4 5 5 2 1 1 3 3 2 3 3 2 3 3 5 5 4 4 7 10 12 14 14 14 14 16 15 14 15 14 13 13 13 12 12 14 20 25 28 31 34 35 37 38 37 37 38 39 40 41 41 41 39 38 37 36 35 34 32 30 27 26 25 24 22 20 21 21 21 20 19 17 16 15 15 14 14 13 11 11 10 10 10 10 10 10 11 11 11 11 11 11 11 11 10 9
1 1 2 2 3 5 4 3 4 4 3 3 3 3 3 6 6 7 10 11 12 13 12 13 16 19 17 14 13 13 13 12 12 12 13 13 15 21 28 30 32 35 36 35 35 35 36 37 37 38 38 37 38 39 39 38 37 36 35 33 30 28 27 26 24 22 21 22 22 21 21 20 17 16 17 17 16 15 13 12 12 12 12 11 11 10 10 11 12 12 12 12 12 12 13 12 11
4 3 4 2 2 2 2 1 3 4 4 3 3 3 5 6 5 8 12 11 12 14 14 15 16 15 13 12 13 13 12 13 13 13 13 13 15 21 28 31 32 32 32 31 32 33 35 35 35 36 36 35 37 38 38 38 38 37 36 34 31 29 29 28 25 23 22 22 22 21 21 19 17 17 18 17 16 15 14 13 13 13 13 13 13 12 11 11 12 12 12 13 14 13 14 14 14
8 7 7 6 5 4 3 3 2 2 4 5 5 4 7 6 4 7 9 8 10 13 15 14 12 12 13 13 14 14 13 14 14 13 13 13 13 19 25 27 27 26 27 29 31 32 32 33 35 35 35 36 38 38 38 37 37 36 35 34 32 31 30 29 26 24 23 22 22 21 20 19 18 18 19 18 17 16 15 15 15 15 15 16 16 15 15 13 12 12 12 13 14 15 15 15 16
Wind_Direction
168 162 156 150 146 144 108 43 61 6 72 83 107 142 30 355 76 115 117 178 159 64 48 69 85 97 99 112 123 100 43 32 185 137 122 132 134 134 128 133 129 111 110 120 125 126 123 122 124 125 124 125 127 126 126 126 128 130 131 132 132 134 134 136 144 137 133 137 138 140 140 140 139 139 138 135 134 132 131 129 129 128 126 124 123 121 121 120 118 117 113 109 105 102 100 98 97
172 165 158 148 146 143 61 86 82 32 63 77 53 140 143 219 99 134 149 159 90 84 88 88 84 80 98 113 129 107 42 31 116 103 95 127 128 128 133 135 127 113 112 122 126 128 124 123 127 127 125 126 127 126 126 129 133 135 135 135 135 137 139 138 140 134 132 135 137 139 140 141 140 140 139 137 135 133 132 132 131 129 125 124 122 121 122 121 119 117 115 111 107 105 102 101 100
172 166 155 143 136 77 16 52 84 83 79 91 74 143 157 149 120 112 122 100 98 119 109 97 82 64 90 95 64 62 61 54 98 95 112 131 128 132 139 138 130 120 121 127 129 133 130 127 129 128 127 126 126 127 128 132 136 138 137 139 139 139 139 138 137 135 135 136 138 139 140 140 140 141 140 138 137 136 136 135 133 129 125 123 122 123 123 122 121 119 116 113 109 109 108 108 108
169 166 157 142 82 21 78 62 100 106 102 121 97 141 155 124 114 101 97 97 110 130 109 93 64 21 69 91 77 76 97 101 101 98 122 138 138 142 143 139 134 126 126 129 133 137 134 131 130 129 128 127 128 130 130 131 135 137 137 138 137 135 135 136 137 137 138 138 139 139 140 141 142 142 141 140 139 138 138 135 132 127 125 123 122 123 123 122 121 118 115 113 113 114 116 117 117
162 167 169 152 81 159 146 93 91 98 133 152 122 156 145 122 121 112 101 93 94 92 87 102 79 50 72 87 107 85 105 119 111 95 110 132 140 143 144 140 134 129 129 130 134 135 134 134 131 129 129 129 130 132 133 132 133 134 134 134 134 134 134 136 138 140 141 140 140 140 141 143 144 144 143 142 140 139 137 133 130 128 127 124 123 122 120 119 117 115 115 117 120 119 122 122 126
153 155 173 177 328 245 72 91 92 95 156 149 128 153 141 132 128 115 98 76 59 60 71 87 103 104 77 52 55 80 140 134 119 112 120 134 143 145 145 141 135 134 134 134 136 133 131 132 127 126 128 130 132 133 133 132 131 132 132 132 133 135 137 138 140 141 142 141 141 141 141 144 146 145 144 142 141 138 135 132 132 131 129 126 125 121 118 116 115 116 121 129 130 127 126 130 137
153 142 145 222 303 327 80 104 113 103 173 144 134 147 141 133 124 113 100 84 68 62 69 83 112 109 80 56 67 73 117 123 126 131 133 139 146 147 147 145 139 138 138 138 139 138 134 131 128 128 131 132 132 131 130 129 130 131 131 133 135 136 139 140 141 142 142 141 142 142 142 144 145 144 143 142 140 138 135 135 135 133 131 131 128 123 122 120 120 117 124 137 132 132 128 143 152
159 155 104 136 7 38 84 93 113 120 123 125 129 139 138 135 131 117 108 107 92 77 89 103 107 93 64 57 79 70 91 113 132 132 136 142 146 146 150 149 143 142 141 140 141 142 141 140 138 136 136 134 132 131 129 129 130 131 132 135 136 137 139 140 141 142 142 141 142 142 144 145 145 144 144 143 142 141 139 139 139 139 138 138 137 134 134 134 139 128 119 105 75 142 105 151 206
156 169 341 121 61 55 84 89 110 130 126 128 127 133 135 136 136 119 112 99 101 104 114 127 86 89 91 73 87 69 87 120 132 129 138 143 145 147 153 153 147 146 144 143 143 144 147 147 143 139 138 135 133 133 133 133 134 135 136 138 139 140 140 141 142 143 142 141 142 143 146 146 146 145 145 146 146 145 145 147 146 146 148 151 154 150 153 163 157 122 51 348 336 317 319 320 299
140 185 189 116 74 66 70 93 117 122 130 133 129 136 136 134 125 114 114 106 109 109 103 92 75 107 112 89 85 80 113 130 132 131 141 142 145 151 155 157 153 150 149 147 145 145 147 147 143 141 141 139 138 138 139 140 141 142 142 143 143 144 144 145 146 146 144 143 145 146 147 148 148 148 149 150 150 152 153 153 153 155 161 170 178 177 198 208 206 304 322 310 314 302 289 300 306
121 223 156 73 64 80 105 109 119 124 127 117 112 127 128 128 114 104 108 102 96 105 110 88 88 111 104 91 72 112 128 135 137 139 144 144 151 157 158 160 159 155 154 150 146 145 145 146 144 144 144 143 144 143 144 145 147 148 147 147 146 148 149 150 150 150 149 147 149 148 149 149 150 151 152 154 155 158 160 161 164 170 184 206 233 253 256 254 261 287 303 298 301 297 287 288 293
250 235 68 85 106 122 139 124 116 113 117 117 122 129 131 129 115 119 121 115 116 120 129 112 126 124 98 97 105 125 136 144 145 145 147 146 153 162 161 161 161 159 157 152 148 147 146 149 148 147 148 148 149 148 150 150 152 152 151 152 151 152 153 153 153 153 153 152 153 152 152 152 153 155 157 160 161 164 169 175 180 192 216 243 265 277 282 284 286 296 304 302 302 302 301 299 293
211 150 79 97 146 124 116 118 121 113 118 138 140 140 139 131 126 132 124 125 135 133 131 126 144 128 96 108 121 137 148 154 150 147 149 146 155 164 162 161 162 162 159 154 152 151 152 153 152 151 152 152 153 154 155 156 156 156 156 157 156 156 156 156 156 156 156 156 156 156 155 157 159 161 164 167 171 175 181 189 201 218 239 264 278 289 295 298 294 300 307 307 305 304 307 306 300
191 154 103 111 92 115 125 124 135 129 143 162 143 145 153 144 138 135 126 131 137 133 121 126 134 104 105 131 133 161 162 158 154 149 148 145 154 163 162 161 162 164 160 158 158 157 157 157 157 156 156 156 158 159 159 161 160 160 160 161 159 159 159 160 160 160 160 159 159 160 161 163 166 167 171 176 180 186 193 202 213 228 246 268 277 282 285 289 289 295 303 305 305 304 305 303 299
183 118 94 117 42 105 154 151 149 138 154 167 155 154 148 134 139 136 138 137 117 128 120 131 150 101 148 170 157 176 164 160 156 149 148 145 150 155 159 160 162 165 162 164 164 162 163 162 162 161 161 162 162 163 163 164 164 164 164 164 164 163 164 164 164 163 163 162 162 164 167 170 173 176 179 184 189 194 203 212 220 231 247 264 269 273 276 279 283 287 295 300 303 301 302 301 297
162 99 74 100 96 159 169 150 144 136 159 167 162 149 119 121 140 130 135 121 118 144 129 152 201 131 165 173 154 161 159 159 154 149 149 144 145 147 154 159 163 167 166 169 169 168 169 168 168 167 167 167 166 167 166 167 168 169 168 168 167 166 167 167 167 167 166 167 168 170 174 177 182 186 189 196 200 203 213 223 233 244 254 261 265 272 276 274 275 283 292 299 299 298 298 296 293
79 84 81 113 169 186 172 155 154 146 159 159 157 148 127 135 141 90 87 105 126 149 119 105 143 106 139 142 144 152 155 157 152 148 146 141 142 143 150 158 164 169 172 176 174 173 174 175 174 171 171 171 171 170 169 170 171 173 172 171 171 169 170 171 172 172 173 173 175 178 181 186 191 195 199 207 211 215 224 234 245 255 259 260 263 268 273 274 277 288 297 297 294 295 296 294 297
72 90 114 162 185 190 184 171 164 145 150 154 157 156 141 138 130 111 109 111 124 125 92 91 79 88 116 128 140 149 152 151 149 147 145 143 144 147 153 161 166 172 178 181 181 179 179 181 178 176 176 176 176 175 174 173 174 177 176 174 174 174 175 177 179 179 181 181 183 187 191 195 198 202 207 212 219 228 236 246 252 257 260 262 264 266 271 276 282 289 295 293 289 292 296 300 309
113 121 134 214 208 194 183 153 149 145 149 151 156 160 144 136 134 140 137 133 136 118 110 109 101 107 118 131 142 150 151 147 149 149 147 149 152 154 158 164 168 175 180 183 185 183 183 184 183 182 181 180 180 179 178 177 178 182 181 179 179 179 182 185 186 187 189 189 191 196 200 203 205 209 215 218 228 241 250 257 258 261 264 267 268 268 272 279 284 287 291 290 290 294 297 301 306
169 132 158 231 211 193 175 149 151 150 149 147 152 153 139 138 140 151 143 139 148 140 142 138 133 140 139 143 147 150 150 147 150 151 151 154 158 162 164 168 172 178 181 183 185 185 186 186 185 185 185 184 183 183 182 182 184 186 185 184 185 186 188 191 193 194 196 196 199 204 207 211 214 219 221 224 236 248 255 260 263 264 265 270 272 273 276 282 286 287 289 288 289 294 296 300 303
180 158 198 219 179 187 179 153 154 149 148 146 142 136 136 145 142 146 139 134 160 171 167 154 149 153 148 150 152 151 151 149 151 154 155 157 161 166 170 174 177 180 181 183 186 188 190 189 188 188 188 187 186 187 186 187 189 190 191 191 192 193 194 197 198 201 203 204 207 211 215 220 224 229 230 230 239 248 256 262 267 268 269 274 277 280 283 286 288 287 287 286 285 289 294 300 305
166 212 215 194 155 180 176 149 149 145 140 136 137 139 146 150 144 153 149 149 183 181 173 156 149 154 153 153 153 152 153 152 155 158 160 162 164 168 173 177 179 180 181 185 189 191 192 192 191 190 191 191 190 192 191 192 194 194 196 197 199 199 201 204 205 208 210 211 214 217 221 227 230 234 237 239 245 251 258 264 268 271 273 276 276 279 281 284 288 287 286 289 291 293 296 300 304
209 247 210 178 166 167 152 141 146 140 134 138 143 144 144 141 147 164 161 163 169 156 155 153 149 150 151 152 153 155 157 158 160 163 166 166 168 171 173 177 178 180 183 189 193 193 193 194 195 194 194 194 194 196 197 198 198 199 201 202 206 205 207 212 212 214 216 217 220 223 226 231 235 239 242 245 248 252 258 263 267 270 272 275 275 278 280 281 284 286 287 292 298 300 301 302 303
203 240 185 165 162 147 139 143 145 136 131 137 137 139 146 147 151 164 157 130 136 133 140 145 144 147 149 153 158 159 160 162 166 168 171 171 173 175 175 178 180 182 185 191 195 195 195 196 197 197 197 197 197 199 201 203 203 204 205 208 211 212 214 218 219 220 221 224 226 229 232 237 242 246 248 249 249 250 256 263 269 272 273 274 273 274 277 281 285 287 291 295 299 301 303 305 306
187 195 167 137 126 134 136 138 134 123 121 124 128 139 152 147 137 138 142 133 131 132 136 140 143 148 152 157 161 162 164 166 168 170 173 175 175 176 177 180 181 185 189 193 196 197 197 197 198 199 199 200 200 201 205 207 208 208 211 213 214 216 220 223 226 227 228 230 232 235 238 243 247 249 251 251 250 251 254 261 269 273 272 270 265 267 274 284 289 290 294 297 299 299 302 306 307
201 151 140 122 123 134 131 131 129 122 125 125 123 127 135 131 111 91 141 141 137 135 138 145 147 151 158 162 163 164 167 168 170 173 176 177 176 177 181 182 183 188 192 195 196 197 198 198 199 201 201 202 202 204 207 209 212 213 214 216 219 221 223 227 231 233 234 235 237 239 243 248 252 254 254 252 252 255 256 260 266 270 268 262 261 267 275 284 291 294 297 300 302 301 299 302 303
168 124 125 126 131 135 129 128 125 116 123 128 124 128 136 134 113 109 152 144 141 140 143 150 151 156 161 164 166 167 172 174 175 176 176 177 178 181 184 185 188 191 193 195 198 199 198 200 202 203 204 206 205 207 209 210 213 216 217 218 222 225 226 230 232 235 236 236 238 242 246 250 253 256 256 255 257 259 261 262 265 269 268 265 267 275 283 288 292 293 291 290 295 300 302 304 305
122 122 107 119 125 125 128 125 126 115 112 129 120 117 119 99 117 148 154 150 149 146 148 155 156 161 163 165 170 171 178 179 178 178 178 181 184 185 187 189 191 193 194 197 200 199 199 202 204 205 207 208 209 209 210 211 214 217 219 220 223 226 229 232 235 236 237 238 239 242 246 250 254 256 255 255 256 258 260 262 266 269 270 274 280 287 295 298 296 294 291 287 292 300 303 305 306
136 127 108 119 115 121 138 131 139 126 127 140 115 99 104 112 153 149 149 151 152 150 152 159 160 164 165 168 173 176 186 184 182 184 184 187 188 188 190 194 194 195 198 200 201 200 201 204 205 207 208 209 211 211 211 213 216 218 219 221 225 228 231 235 237 238 240 243 244 245 248 252 255 255 254 255 254 254 255 259 264 268 273 281 291 295 302 307 305 306 306 304 309 309 304 305 306
167 131 120 131 107 137 171 140 141 127 147 156 114 109 224 218 157 149 151 152 151 154 158 162 164 168 171 174 177 185 191 186 187 190 190 190 190 192 194 196 197 197 199 201 201 202 202 203 206 208 209 210 211 211 213 215 218 220 220 223 227 229 232 235 237 239 243 246 248 249 251 253 254 253 254 254 252 252 253 259 268 272 276 281 292 299 307 312 311 312 314 314 318 319 315 315 313
142 126 121 134 126 173 220 172 142 128 173 173 97 130 213 199 164 156 158 157 154 160 166 167 169 173 178 179 181 190 194 191 194 194 193 193 191 193 195 196 198 198 198 199 202 204 203 203 205 207 208 211 211 213 214 216 221 222 223 227 229 232 233 235 237 241 244 247 250 252 253 251 249 250 251 251 252 253 256 267 276 279 282 287 295 302 311 313 313 316 317 318 323 326 324 322 318
163 152 132 170 150 170 223 224 157 143 189 212 92 126 198 175 174 166 163 163 160 165 171 173 174 179 184 184 185 191 196 196 198 197 196 195 193 193 196 196 197 197 199 200 202 204 203 203 204 205 207 210 213 215 216 218 222 223 226 230 234 236 236 238 240 242 245 247 251 252 248 246 246 250 252 253 256 256 263 277 282 287 295 300 298 300 310 317 320 323 324 327 328 329 327 324 322
206 174 162 194 163 161 199 231 202 159 166 206 101 136 164 174 180 174 168 168 167 168 174 177 178 183 186 187 187 190 194 197 202 201 198 196 195 194 196 196 196 198 200 201 201 202 202 203 204 205 207 209 213 216 217 218 221 223 226 228 232 234 236 240 241 239 238 237 242 241 238 242 249 253 257 263 265 265 272 279 284 293 302 303 296 302 318 331 334 333 331 332 330 328 326 324 324
233 219 171 200 166 159 175 204 233 181 157 168 128 148 167 174 175 176 175 172 170 173 177 180 181 184 188 190 187 188 192 194 200 201 198 196 196 196 196 196 197 199 200 201 201 202 202 203 205 208 209 209 212 215 217 218 220 222 224 226 230 234 237 241 240 234 229 227 233 234 235 243 250 252 259 268 269 270 273 276 282 292 297 296 299 310 321 323 325 326 324 325 325 324 322 323 325
203 209 172 190 175 171 181 179 195 187 165 158 138 151 168 163 171 180 181 176 175 179 179 180 183 184 187 189 188 189 190 193 197 197 196 195 195 196 196 196 196 198 200 201 202 202 201 203 206 208 211 211 211 214 216 218 221 223 222 226 231 236 237 235 233 230 230 234 238 244 244 245 249 248 249 251 252 259 261 266 273 271 272 285 300 304 306 307 306 307 310 311 314 315 318 325 327
186 217 178 166 174 186 191 171 169 170 160 157 156 160 165 166 177 185 183 181 182 183 181 180 184 185 186 188 192 190 189 194 194 192 193 194 195 195 195 195 195 197 199 200 201 201 201 202 204 207 211 211 210 212 215 217 221 220 219 221 223 225 227 228 232 238 245 251 257 261 246 238 239 222 205 199 208 225 227 227 217 227 267 292 307 307 306 303 300 300 300 300 305 311 322 332 333
158 209 243 186 173 190 197 175 173 165 150 182 178 161 167 172 181 186 181 182 186 184 184 186 185 186 187 189 193 192 193 195 190 186 187 191 194 194 193 193 193 194 198 199 200 201 202 201 203 206 210 211 210 210 212 214 213 209 207 208 208 210 215 223 234 244 254 262 264 256 236 227 208 185 179 177 182 187 182 183 206 245 286 306 309 305 300 296 294 296 292 293 303 313 327 340 341
161 174 226 233 191 189 189 173 175 167 148 178 173 159 177 180 182 186 179 183 192 187 185 190 189 188 188 189 193 194 191 183 182 179 179 186 191 191 190 189 189 191 195 199 200 202 203 202 203 205 208 210 211 211 210 211 210 208 207 207 210 214 218 223 235 246 253 257 252 240 231 224 196 179 179 180 181 184 191 206 229 257 293 308 304 297 294 291 291 294 288 293 305 317 330 354 359
176 160 141 248 259 198 126 169 172 167 153 171 170 170 187 190 184 186 186 190 196 190 187 189 187 187 189 192 192 190 181 170 178 177 174 180 184 186 186 186 189 190 192 196 201 203 203 203 204 206 208 210 211 212 211 211 213 215 217 219 223 226 226 229 237 243 244 241 237 234 232 219 198 190 192 197 203 212 219 222 230 269 305 308 300 292 295 294 297 300 290 300 315 327 346 25 13
174 157 140 181 244 205 199 179 169 165 136 152 155 159 195 199 194 201 201 201 201 195 193 191 187 188 192 194 190 184 179 175 178 179 174 176 178 180 183 184 187 188 189 191 196 201 202 203 204 205 207 209 210 211 212 213 216 219 222 227 229 228 229 230 233 235 232 228 227 226 222 209 197 196 200 208 216 221 222 219 232 286 309 306 297 306 317 312 324 332 323 333 341 349 4 20 9
217 182 166 166 190 222 243 159 153 103 29 116 118 76 306 220 205 216 213 215 217 203 196 198 197 197 196 193 191 187 182 177 176 178 176 175 176 178 181 183 184 184 186 187 190 194 198 200 202 205 206 207 208 209 210 212 214 216 217 219 221 220 222 222 217 209 204 206 208 204 202 197 192 196 203 209 217 226 223 218 237 278 298 302 331 357 347 349 12 34 50 21 7 0 352 345 354
268 219 194 181 185 214 204 132 139 95 11 183 137 130 275 250 215 217 210 214 219 203 195 203 205 203 200 194 196 196 189 182 178 177 175 175 177 178 180 181 181 183 186 187 188 189 192 195 198 201 203 205 206 207 208 209 211 212 209 208 208 205 203 203 202 196 191 190 191 188 186 189 192 198 205 211 220 228 224 224 227 240 278 294 328 352 355 5 29 77 80 52 36 9 327 317 335
270 237 198 193 203 205 168 144 154 150 198 204 170 173 241 258 228 220 213 218 220 213 205 207 205 201 200 197 197 196 192 188 183 179 176 175 177 177 180 181 181 184 187 188 188 189 190 193 195 197 200 202 203 205 207 208 209 209 208 208 206 201 198 198 200 199 196 192 190 189 187 189 194 201 206 210 215 221 228 228 221 224 256 287 314 332 348 21 75 117 109 85 59 352 276 286 323
234 223 171 190 217 210 177 162 179 187 131 159 187 167 109 218 229 207 203 224 227 227 222 213 207 202 201 201 198 193 191 189 184 183 181 179 180 180 182 184 184 185 187 188 189 190 193 194 196 198 201 203 203 205 207 207 208 208 206 207 206 205 205 201 196 193 192 191 190 189 189 191 195 200 206 210 217 227 233 223 214 218 239 280 309 306 296 61 110 144 139 98 324 303 280 284 310
241 215 161 185 212 207 185 177 195 185 106 145 214 171 120 244 257 179 189 219 229 230 227 218 208 202 202 203 200 196 194 190 186 186 186 184 185 184 184 184 186 187 187 189 191 193 196 197 198 200 202 204 204 205 207 207 209 209 206 207 207 207 207 201 194 190 189 190 189 188 191 194 196 200 206 215 225 230 232 226 216 219 246 289 310 284 235 228 221 257 316 327 316 301 282 283 295
240 206 145 152 200 202 188 185 187 148 131 187 205 189 183 258 266 163 177 216 229 230 227 220 210 201 202 203 201 198 195 193 192 191 190 189 189 188 186 185 186 188 188 190 192 193 195 197 199 201 203 204 205 206 206 206 208 209 208 208 208 206 202 197 194 191 190 190 191 194 199 202 203 208 214 224 230 228 228 228 219 228 268 296 300 281 249 255 263 286 315 317 310 296 273 265 280
226 183 103 70 24 150 139 152 115 129 195 215 202 193 189 233 255 189 184 208 217 220 223 219 209 203 204 204 201 197 195 194 193 194 196 195 193 189 186 185 187 188 188 189 191 193 195 196 199 201 204 206 207 206 206 206 208 209 209 209 208 204 199 196 195 194 193 193 198 203 206 208 209 213 222 228 226 223 220 215 221 251 281 288 277 265 289 296 284 282 301 307 299 291 261 250 268
193 153 127 108 333 19 34 7 63 165 225 235 208 196 191 215 245 215 206 214 215 214 216 211 203 202 204 203 201 197 194 194 193 195 196 195 192 189 186 188 188 187 187 189 190 192 194 196 198 201 204 206 208 207 207 207 207 208 209 208 207 203 199 198 198 198 199 201 205 206 205 206 210 217 228 228 222 221 217 219 247 274 284 284 270 246 259 307 302 283 279 279 288 299 268 256 272
152 148 125 142 279 12 59 256 170 202 239 242 197 182 196 230 238 216 211 218 220 217 217 211 200 198 201 201 199 196 192 193 194 196 196 193 188 187 188 189 188 187 189 190 191 192 193 196 199 200 203 206 208 208 207 207 207 207 207 207 205 202 201 202 203 204 206 208 208 207 207 208 212 222 226 223 224 224 223 242 268 276 278 276 260 243 252 280 300 285 268 266 278 287 271 264 270
158 168 154 162 167 124 203 231 262 243 254 259 188 168 200 271 264 221 208 217 221 216 218 215 198 194 200 200 196 192 190 192 196 197 195 193 189 190 190 190 189 190 191 191 192 193 194 196 199 201 204 207 207 207 206 206 206 207 207 206 204 203 203 204 206 210 212 213 212 212 212 213 217 225 224 221 224 226 235 255 264 264 267 263 249 249 252 261 281 278 268 269 275 278 269 263 263
181 168 152 167 167 161 196 205 199 219 237 264 121 156 188 209 230 214 203 219 222 216 222 216 190 194 200 198 193 188 190 192 195 197 195 194 193 192 191 190 191 192 192 192 193 194 195 197 200 201 203 205 205 205 205 205 206 206 206 205 205 204 204 206 210 214 215 214 213 214 215 217 223 225 223 222 222 223 236 247 244 244 251 249 245 246 244 249 259 258 261 269 275 278 268 259 255
217 142 131 182 186 176 187 195 192 188 204 225 138 195 216 210 253 261 219 230 226 217 227 212 183 198 197 193 192 189 193 194 193 196 198 197 194 191 192 193 194 195 193 193 194 194 196 198 200 201 203 204 204 203 204 205 205 204 204 205 205 204 206 209 212 213 215 214 214 215 216 219 222 217 214 215 214 216 225 229 229 235 239 240 243 241 241 247 252 254 256 260 268 276 270 260 253
196 141 181 214 177 156 155 225 235 109 167 234 187 213 263 270 285 313 322 236 207 198 213 207 196 194 189 193 193 190 195 194 194 198 197 194 191 190 193 194 195 195 195 195 196 197 198 198 199 200 202 202 202 202 203 204 203 203 203 203 203 204 206 209 211 212 214 215 216 218 218 219 214 206 206 210 212 216 222 224 228 232 233 237 240 240 245 251 255 257 256 255 260 269 273 268 259
180 204 204 188 126 116 123 162 10 76 184 248 193 193 212 177 236 300 350 181 189 190 198 203 200 190 193 199 192 192 197 195 197 199 196 192 189 191 193 195 196 197 197 198 199 198 199 199 199 199 199 201 202 201 202 202 202 202 202 202 203 204 206 209 212 214 214 214 215 215 215 214 209 203 206 212 215 218 221 224 230 235 235 236 237 236 240 245 250 253 253 255 257 260 270 271 265
205 220 179 148 159 224 148 166 179 159 203 256 264 225 204 187 214 251 218 190 193 195 194 195 193 192 201 201 191 194 196 196 198 196 194 193 190 192 194 196 199 199 200 201 200 199 199 200 201 200 201 202 201 199 200 201 202 202 202 203 203 203 205 210 214 215 214 213 213 213 212 210 209 208 209 213 216 218 221 225 233 239 239 239 241 241 241 243 247 252 254 258 260 260 265 269 269
188 124 158 155 169 181 181 171 165 176 198 222 263 284 244 223 212 200 208 204 191 188 188 191 195 198 201 194 189 194 193 195 198 195 196 194 191 194 195 196 199 200 201 202 200 199 200 200 201 201 202 201 200 199 199 199 200 201 202 203 203 203 206 211 213 214 214 213 213 212 211 210 211 211 209 213 218 221 225 230 236 242 240 240 245 246 246 248 250 256 260 262 264 262 264 266 267
184 193 213 200 125 145 178 186 141 146 162 177 208 254 259 250 209 187 208 211 191 183 185 193 199 196 193 190 190 193 194 196 199 197 196 193 192 195 197 199 200 200 201 200 199 200 200 200 200 200 200 200 199 199 199 199 199 199 200 201 201 202 206 210 212 213 213 213 213 213 213 214 216 214 211 215 220 224 230 236 239 244 245 245 248 250 251 251 252 257 261 264 264 262 262 263 263
190 195 205 188 159 131 152 234 260 122 151 167 171 225 262 257 206 196 212 205 193 192 190 192 192 181 184 194 194 191 193 198 200 200 197 192 191 194 196 199 198 197 198 199 199 200 200 200 201 200 200 199 200 200 199 198 197 197 200 201 201 204 207 209 211 212 213 213 214 215 215 218 221 219 215 217 223 228 234 239 242 247 250 252 254 253 253 253 252 257 261 264 264 261 261 260 260
Height
754 757 758 760 759 761 764 766 782 785 786 803 803 801 798 786 786 788 789 786 787 783 776 777 776 778 783 790 796 799 801 801 805 810 814 806 800 803 803 805 808 808 806 804 804 805 806 807 808 808 810 810 811 812 813 814 815 817 819 821 822 823 824 827 829 828 828 829 830 831 832 833 834 835 835 836 837 838 838 839 839 840 840 840 841 841 842 842 842 842 842 843 843 843 843 843 843
753 756 757 760 759 764 770 769 787 793 795 813 806 800 797 787 789 791 789 787 786 782 775 777 779 781 782 786 790 794 801 799 798 799 800 800 802 804 804 806 808 809 807 806 805 806 807 808 809 810 811 812 812 813 814 816 818 820 822 823 824 826 828 829 830 829 829 830 831 832 834 834 835 836 836 837 837 838 839 839 840 840 840 841 841 842 842 842 843 843 843 843 843 843 843 843 844
753 756 756 760 761 764 772 774 789 799 807 819 810 796 791 793 794 790 787 783 781 777 776 778 781 784 786 791 793 798 805 800 796 796 798 801 802 804 806 807 808 810 808 808 807 807 809 810 811 812 813 813 813 814 816 818 820 822 823 825 826 828 830 830 830 830 830 831 832 834 835 835 836 836 837 838 838 839 839 840 840 840 841 841 842 842 843 843 843 843 843 843 844 844 844 844 844
754 756 756 758 766 773 778 784 788 798 812 816 811 798 790 794 792 789 784 780 778 776 778 781 787 786 787 798 797 800 805 801 798 797 800 802 802 805 806 808 810 811 810 809 809 809 811 812 813 814 814 814 815 817 818 820 821 823 824 825 827 828 829 830 830 831 831 833 834 835 835 836 837 837 838 839 839 840 840 840 841 841 841 842 842 843 843 844 844 844 844 844 844 844 844 844 844
755 757 758 758 770 776 776 784 786 795 806 804 808 800 790 790 788 788 784 781 779 778 780 782 792 789 788 797 796 803 806 802 800 797 800 803 803 805 807 809 811 812 813 811 811 811 812 814 815 816 817 817 818 819 820 821 822 823 824 825 826 827 829 829 830 831 832 833 834 835 836 837 838 838 839 840 840 840 841 841 841 842 842 843 843 844 844 845 845 845 845 844 845 845 845 845 845
755 759 759 760 766 766 773 786 790 795 793 789 800 798 788 786 784 786 784 782 779 779 780 782 791 792 796 797 794 801 801 800 801 799 800 803 805 806 808 810 812 813 814 814 813 812 813 815 815 816 818 819 820 821 822 823 824 825 825 826 827 828 829 830 831 832 833 834 835 836 837 838 838 839 840 840 841 841 841 841 842 843 843 844 844 845 845 845 845 845 845 845 846 846 846 846 845
754 760 763 767 766 764 780 792 792 796 787 780 789 790 786 784 781 784 786 787 785 782 782 785 785 791 803 799 798 800 797 799 799 800 802 803 806 807 810 811 812 814 815 816 816 816 816 816 816 818 819 820 822 823 824 824 825 826 827 828 828 829 830 831 832 833 834 835 836 837 838 838 839 840 840 841 841 841 842 842 843 843 844 844 845 845 846 846 846 846 846 846 846 846 846 846 846
752 759 764 771 773 772 785 792 791 792 786 778 780 782 781 781 780 783 787 788 790 789 787 788 784 795 806 799 805 804 797 800 799 801 803 804 807 808 811 811 813 814 816 817 818 819 819 820 821 821 822 823 823 824 825 825 826 827 828 829 830 831 831 832 833 834 835 836 837 838 838 839 840 840 840 841 841 842 842 843 843 844 844 845 846 846 846 847 847 847 847 847 847 847 847 846 846
751 758 763 771 777 781 788 791 790 787 784 780 778 779 777 777 778 781 787 789 789 790 791 788 784 799 808 803 808 804 799 802 801 804 804 806 808 809 811 812 814 814 816 818 819 820 821 823 823 824 824 824 825 825 826 826 827 828 829 829 831 832 832 833 834 836 836 837 838 839 839 840 840 840 841 841 842 842 843 843 844 845 845 846 846 847 847 847 847 847 847 847 847 847 847 847 847
753 758 764 771 779 789 794 793 792 788 784 780 778 778 777 777 777 780 786 790 789 791 792 786 788 799 806 809 810 804 803 804 803 806 806 808 809 810 812 813 814 815 817 818 819 821 822 824 824 825 825 825 826 826 827 827 828 829 830 831 831 832 833 835 835 837 837 838 839 840 840 840 841 841 842 842 843 843 843 844 845 846 846 847 847 847 848 848 848 847 847 847 847 847 847 847 847
758 759 760 773 785 795 798 796 793 789 784 781 781 777 776 776 778 783 786 790 790 792 792 789 797 801 803 811 810 805 804 805 806 807 808 809 810 811 812 813 815 816 817 818 820 821 822 824 824 825 826 827 827 828 829 829 830 830 831 832 833 834 834 836 836 838 838 839 840 840 841 841 842 842 843 843 843 844 844 845 846 846 847 847 848 848 848 848 848 848 848 847 847 847 847 847 847
761 762 761 778 790 794 795 797 796 792 788 786 787 780 775 776 780 786 788 792 792 794 792 790 798 797 806 815 809 806 805 807 808 808 810 810 811 812 813 814 816 817 819 819 820 822 823 824 825 826 827 828 828 829 830 830 831 832 833 833 834 835 836 837 837 838 839 840 840 840 841 841 842 842 843 844 844 845 846 846 846 847 847 848 848 849 849 849 849 849 848 848 847 847 847 847 846
759 760 763 780 786 788 792 796 796 795 796 790 786 779 775 778 782 785 787 792 792 796 793 788 791 792 808 815 808 807 806 807 808 809 810 811 812 813 814 815 817 819 819 821 821 822 823 824 825 827 828 829 830 831 831 832 833 833 834 835 836 836 837 838 838 839 840 840 841 841 841 842 842 843 844 844 845 846 846 847 847 848 848 848 848 849 849 849 849 849 848 848 847 847 847 846 846
752 754 762 781 784 785 789 795 795 798 801 788 781 777 776 780 780 779 784 795 796 793 790 785 787 795 808 813 812 810 806 807 808 809 811 812 813 813 815 816 818 819 820 821 822 823 824 825 826 827 828 829 830 831 832 833 834 835 836 836 837 838 838 839 839 840 840 841 841 842 842 843 843 843 844 845 845 846 847 847 847 848 848 848 848 848 848 849 849 849 848 848 847 847 847 846 845
746 750 760 779 785 786 787 791 792 797 798 785 780 776 778 779 775 779 781 790 795 786 785 787 786 796 806 808 811 807 804 807 807 809 811 812 813 814 817 817 819 820 821 822 822 824 824 826 827 828 829 830 831 832 833 833 835 835 836 837 838 839 839 840 840 840 841 841 842 842 843 843 844 844 845 845 846 846 847 847 847 847 847 847 847 847 848 848 848 847 847 848 848 847 847 846 845
740 747 763 779 785 789 787 786 789 796 794 782 778 774 782 784 776 782 779 778 790 785 785 791 787 791 798 800 801 800 802 806 807 810 810 812 814 815 817 817 820 820 821 822 823 824 825 826 827 828 829 830 831 832 833 834 835 836 837 838 838 839 840 840 840 841 841 842 842 843 843 844 844 845 845 845 846 846 846 846 846 846 847 847 847 847 847 847 847 846 847 847 846 846 846 846 845
737 749 770 781 785 788 783 783 787 790 786 780 778 775 785 789 779 780 777 776 787 790 789 790 787 787 793 795 796 798 803 805 807 810 811 813 814 815 817 818 819 820 822 822 823 824 825 827 827 828 829 830 831 832 833 834 835 837 837 838 839 840 840 841 841 841 842 842 843 843 844 844 844 845 845 846 846 846 846 846 846 846 846 846 846 846 846 846 846 846 847 846 844 845 846 844 844
746 762 777 782 783 780 772 774 775 774 779 779 778 776 779 787 785 780 782 787 790 792 792 791 790 789 792 794 797 800 803 805 807 809 811 813 814 816 817 818 819 820 821 822 823 824 825 826 827 829 829 830 831 832 834 834 836 836 837 838 839 840 840 841 841 842 842 843 844 843 844 844 844 845 845 846 846 846 847 846 846 846 847 846 846 846 845 845 846 846 846 845 844 844 844 843 842
753 767 778 780 775 767 759 762 764 766 773 775 776 774 775 780 782 781 789 797 794 797 799 796 797 796 795 796 798 801 802 805 807 809 811 812 814 815 817 818 819 820 821 822 823 824 825 826 827 828 829 830 831 832 834 834 836 836 837 838 839 840 840 841 842 842 843 843 844 843 844 844 844 845 845 846 847 847 847 847 847 847 847 846 846 846 845 845 845 845 845 845 844 844 843 842 842
752 762 777 773 762 759 754 756 758 759 764 771 776 774 775 777 776 780 789 798 797 800 800 799 803 800 798 798 798 801 802 805 807 809 811 812 814 815 816 817 818 819 820 821 822 824 825 826 827 828 829 830 831 832 833 834 835 836 837 838 839 839 840 841 842 842 843 843 843 843 844 844 844 845 846 847 847 847 847 847 847 847 847 846 846 845 845 845 845 845 845 844 844 843 842 842 842
752 757 768 761 754 760 754 752 754 755 758 766 773 776 781 777 773 780 787 799 804 799 793 792 797 798 796 797 797 800 802 804 807 809 810 812 814 815 816 816 817 818 820 821 822 823 824 825 826 828 829 830 831 832 833 834 835 836 837 838 839 839 840 841 841 842 842 842 843 843 844 844 845 845 846 846 847 847 847 847 846 846 846 846 846 845 845 844 844 844 844 844 843 842 842 841 841
752 753 752 748 750 758 752 749 752 754 758 765 771 777 779 775 775 780 783 795 797 790 787 786 788 792 794 795 797 799 801 804 806 808 810 811 812 814 815 816 818 819 820 821 822 823 824 825 826 827 829 830 831 832 833 834 835 836 837 837 838 838 839 840 841 841 841 842 842 843 844 844 844 845 846 846 846 846 846 846 846 846 846 845 845 845 844 844 844 844 843 843 842 841 841 841 841
753 752 744 744 745 750 750 748 751 752 759 767 770 771 771 776 782 779 779 784 781 778 782 783 785 787 791 794 797 799 801 803 804 806 808 809 811 812 814 815 817 818 819 820 821 823 824 825 826 827 828 829 831 832 833 833 834 835 836 837 838 838 839 839 840 840 841 842 842 843 843 843 844 844 845 845 846 846 846 846 846 846 845 845 845 844 844 844 843 843 843 842 842 841 840 840 840
750 752 744 743 741 745 747 747 750 752 759 763 763 767 771 779 784 781 782 780 775 777 780 783 786 787 791 795 797 799 800 802 804 805 807 807 809 810 812 813 815 817 818 819 820 821 823 824 825 826 827 829 830 831 832 833 834 835 836 837 837 838 838 839 839 840 841 841 842 842 842 842 843 844 844 845 845 845 845 845 845 845 844 844 844 844 843 843 843 842 842 842 841 840 839 839 839
746 750 745 742 742 744 745 746 751 753 758 760 763 771 774 774 776 782 784 780 777 778 781 785 788 790 793 795 797 799 800 802 803 805 807 808 809 810 812 813 814 816 816 818 819 820 822 823 824 826 827 828 829 830 831 833 834 835 835 836 836 837 837 838 839 840 840 841 841 841 841 842 843 843 843 844 844 844 844 845 844 844 844 844 843 843 843 842 842 842 842 841 841 840 839 838 838
742 744 743 743 747 746 746 749 751 754 757 758 767 777 777 771 774 786 785 779 779 778 783 787 789 793 795 796 797 798 800 801 803 804 806 807 809 811 812 813 813 814 815 816 818 819 821 823 824 825 826 827 829 830 831 832 833 834 834 835 835 836 837 837 838 839 839 840 840 841 841 842 842 842 843 843 843 843 844 844 844 844 843 843 843 842 842 842 841 841 841 840 840 839 838 838 837
737 741 743 744 748 747 747 752 753 754 758 759 769 780 778 771 777 792 788 779 780 781 786 788 790 795 795 797 798 798 800 800 802 803 805 807 808 810 811 812 813 813 815 816 817 819 820 822 823 824 825 827 828 829 830 831 832 833 833 834 835 835 836 837 837 838 839 839 839 840 841 841 842 842 842 842 842 843 843 843 843 843 843 843 842 842 841 841 840 840 839 839 839 838 838 837 836
737 742 749 751 750 750 749 754 755 756 763 761 765 779 779 775 781 789 784 779 781 784 789 790 792 795 795 798 798 799 800 800 802 802 804 806 806 808 810 811 812 813 814 815 816 818 820 821 822 823 825 826 827 828 829 830 831 832 833 833 834 835 835 836 836 837 837 838 839 839 840 840 841 841 841 841 841 842 842 842 843 842 842 842 842 841 840 840 839 839 838 838 837 837 837 836 835
741 742 757 764 757 760 756 754 755 756 767 761 761 785 790 785 787 783 779 780 782 785 790 792 793 795 795 797 798 799 799 800 802 802 803 804 805 807 808 809 810 812 812 814 816 817 819 820 822 823 824 825 826 827 828 829 830 831 832 832 833 834 834 835 835 836 836 837 838 838 839 839 840 840 840 840 840 841 841 841 841 841 841 841 840 839 839 838 838 838 837 837 836 836 836 835 835
750 746 757 771 774 776 762 755 757 758 765 754 760 797 803 790 786 781 778 780 784 790 792 793 794 795 796 796 798 799 798 799 800 800 801 802 804 805 806 808 809 810 811 813 815 816 818 820 821 822 823 824 825 827 828 829 830 830 831 831 832 833 833 834 834 835 836 836 837 837 838 838 838 839 839 839 839 840 840 840 840 840 840 839 839 838 837 837 837 836 836 836 835 835 834 833 833
759 760 761 772 786 786 765 757 761 765 766 752 761 798 803 792 787 780 778 779 784 792 793 792 794 794 795 795 797 798 796 797 798 798 800 800 802 803 805 806 807 809 810 811 813 814 817 819 820 821 822 823 824 826 827 828 829 830 830 831 831 832 832 833 833 834 835 835 836 836 836 837 837 837 837 838 838 839 839 839 839 839 838 837 837 837 837 836 836 836 835 835 834 833 833 832 832
761 774 780 778 782 784 770 759 759 764 766 755 765 796 801 791 786 779 776 779 783 790 792 792 793 793 794 794 795 796 795 795 796 796 798 799 800 801 803 805 806 808 809 810 811 813 816 817 819 820 821 822 823 824 826 827 828 829 830 830 830 831 831 832 832 833 834 834 835 834 835 835 836 836 836 837 837 837 837 838 837 837 837 836 837 837 836 836 835 835 834 834 833 833 832 832 831
766 775 787 783 780 785 778 764 755 754 762 762 768 790 799 790 783 778 775 778 782 788 790 790 791 791 791 792 793 794 795 795 795 795 796 797 798 799 801 803 805 806 807 809 810 812 814 816 818 819 820 821 821 823 824 825 827 828 829 829 830 830 830 831 831 832 833 833 833 833 833 834 834 835 835 835 835 836 836 837 836 836 836 836 836 836 835 835 834 834 833 833 833 832 832 831 830
774 774 781 778 776 781 781 772 760 754 761 767 771 782 790 784 779 778 775 776 782 787 789 788 789 789 789 790 791 792 793 794 793 792 793 795 796 798 799 801 803 804 806 808 809 810 812 814 816 817 819 820 820 821 822 824 825 827 828 828 829 829 829 830 830 831 831 832 832 832 832 833 833 833 834 834 834 835 835 835 835 835 835 835 835 835 834 834 833 833 833 832 832 831 831 830 829
776 776 776 777 776 775 776 772 763 759 764 770 776 783 785 782 780 779 776 776 781 784 784 785 786 787 788 788 789 791 791 791 789 789 791 792 794 796 798 800 801 803 805 806 808 809 811 813 814 816 818 819 820 821 822 823 824 825 826 827 827 827 828 828 829 829 830 831 831 831 831 831 832 832 833 833 834 834 834 834 834 834 834 834 834 834 834 834 833 833 832 832 831 831 830 829 828
768 769 769 774 777 774 768 763 757 758 769 775 778 783 784 784 782 780 777 776 780 783 781 783 784 784 786 787 787 788 789 787 785 786 788 790 792 794 796 798 800 802 804 805 807 809 810 812 813 815 816 818 819 820 821 823 823 824 825 826 826 826 827 827 827 828 829 829 830 830 831 831 831 831 832 832 833 833 834 834 834 834 834 834 834 833 833 833 833 832 832 831 830 829 829 828 827
759 763 767 768 771 772 765 760 755 753 769 780 777 779 782 782 781 778 776 778 781 783 783 783 782 783 784 784 785 785 785 783 781 784 786 787 790 792 794 797 798 801 803 804 806 807 809 810 812 813 815 817 818 819 820 821 822 823 824 824 825 826 826 827 827 827 827 828 829 829 830 830 830 831 831 831 832 833 833 833 834 834 833 833 833 832 832 832 832 831 831 830 829 828 828 827 827
756 759 766 770 770 768 761 758 757 752 767 781 777 780 783 779 779 777 775 779 780 779 781 782 780 780 780 781 783 782 782 781 780 783 785 786 788 790 793 795 796 799 800 802 804 805 807 808 810 811 813 815 816 817 818 819 820 821 822 823 824 826 826 826 826 827 827 827 828 828 829 829 830 830 830 831 831 832 832 832 832 832 832 832 832 831 831 831 831 831 830 829 829 828 827 827 826
756 759 765 773 770 766 762 757 756 755 767 781 780 783 785 779 777 776 774 774 773 771 772 775 776 778 780 779 779 780 781 782 781 782 783 785 786 788 791 792 794 796 798 800 802 803 805 807 808 809 811 813 814 816 817 818 819 820 821 822 824 825 825 826 826 826 826 827 827 827 828 828 829 829 830 830 830 830 831 831 831 831 832 831 831 831 830 830 830 830 829 829 828 828 827 827 826
758 760 765 772 767 768 772 765 761 759 765 777 781 785 787 782 780 778 773 770 769 768 768 769 771 774 774 773 774 776 779 781 781 781 782 783 785 786 788 790 792 794 796 798 800 802 803 804 806 807 809 810 812 813 815 816 818 819 820 821 822 823 824 824 824 825 825 825 826 826 826 827 827 828 829 829 829 830 830 830 830 831 831 830 830 830 830 829 829 829 828 828 828 827 827 826 826
758 757 760 765 762 764 767 764 763 764 769 774 781 796 797 787 788 785 775 772 771 770 771 772 771 769 769 770 771 772 773 775 778 779 780 781 783 784 785 788 790 792 794 795 797 799 801 802 804 805 807 808 810 812 813 815 817 818 819 820 821 822 822 822 823 823 823 824 825 825 825 826 826 827 828 828 829 829 829 830 830 830 830 830 830 829 829 828 828 828 828 827 827 827 827 826 826
760 754 750 752 755 758 761 763 767 779 788 777 778 809 811 790 789 788 778 777 775 772 773 774 771 769 770 772 772 771 771 771 772 774 776 778 780 782 784 785 787 789 791 793 795 797 798 800 802 804 805 807 808 810 812 814 815 816 817 818 819 819 820 820 821 822 822 823 824 824 825 825 826 826 827 828 828 829 829 829 829 829 829 829 829 828 828 828 827 827 827 827 827 827 826 826 826
764 750 740 744 748 754 760 763 770 785 789 771 768 796 810 797 789 784 779 780 778 774 774 771 770 770 770 771 770 770 771 771 771 771 772 774 777 779 781 783 784 786 788 791 793 795 797 798 800 802 803 805 807 808 810 812 813 814 815 816 817 818 818 819 820 821 821 822 823 824 824 825 826 826 826 827 828 828 828 828 829 829 828 828 828 828 827 827 827 826 826 826 826 826 826 826 826
760 739 733 743 747 754 759 761 768 772 771 772 770 779 799 801 787 777 778 782 781 777 774 769 768 768 768 767 766 767 768 768 770 771 770 771 773 775 777 779 780 782 785 788 791 793 795 796 798 800 802 803 805 807 808 810 811 812 813 815 816 817 817 818 819 820 821 822 823 823 824 825 825 826 826 826 827 827 827 828 828 828 828 828 827 827 827 826 826 826 826 826 826 826 826 826 825
745 729 733 741 743 750 753 757 765 763 771 791 786 777 795 801 782 775 778 783 784 778 771 766 764 764 764 764 763 763 763 764 765 767 767 767 769 770 772 775 778 780 783 785 788 790 792 794 796 798 800 801 803 805 806 808 809 811 812 813 815 816 817 818 819 820 821 821 822 823 824 824 825 825 826 826 826 826 826 827 827 827 827 827 826 826 826 826 825 825 825 825 825 825 825 825 825
730 725 734 738 741 746 750 758 764 766 781 799 789 777 792 799 785 781 785 786 782 771 762 759 758 759 760 760 760 760 761 761 762 763 763 764 765 767 770 773 776 778 780 782 785 787 790 792 794 796 797 799 801 802 804 806 807 809 810 812 813 815 816 818 818 819 820 821 822 822 823 824 824 825 825 825 825 825 825 826 826 826 826 826 826 826 826 825 825 825 825 825 825 825 825 825 825
722 728 737 742 747 749 754 760 763 779 794 792 780 771 781 794 789 782 778 770 761 756 756 755 754 756 756 755 756 757 758 759 760 761 761 762 764 766 769 772 774 776 778 780 782 785 787 789 791 793 795 797 798 800 802 803 805 806 808 809 811 813 814 816 817 818 819 819 820 821 822 823 823 824 824 824 824 824 824 825 825 826 826 826 826 825 825 825 825 825 825 825 825 825 825 825 824
725 735 742 751 759 760 767 771 772 793 800 780 769 768 777 791 785 770 760 746 740 744 746 747 748 750 750 750 750 751 754 755 757 758 759 761 764 767 769 770 772 774 776 778 780 782 784 786 788 790 792 794 796 798 799 801 803 804 806 807 809 811 812 814 815 817 817 818 818 819 820 821 822 823 823 823 823 824 824 824 825 825 825 825 825 825 825 825 825 825 825 825 825 824 824 824 824
732 741 748 764 778 782 790 791 789 797 789 768 763 770 782 784 765 753 751 740 734 734 732 733 737 741 742 744 745 747 749 752 754 755 757 759 761 764 766 768 770 772 773 775 777 779 782 784 785 787 789 791 794 795 797 799 800 802 804 805 807 809 811 812 813 815 815 816 817 818 818 819 820 821 822 822 823 823 823 824 824 824 825 825 824 824 824 825 825 825 825 825 824 824 824 824 824
738 744 752 767 783 797 806 803 801 799 780 762 762 771 784 780 754 741 742 734 724 722 720 721 726 732 735 735 738 742 745 748 751 752 754 757 758 760 762 764 766 768 770 773 775 777 779 781 783 785 786 789 791 793 795 797 798 800 802 804 806 807 809 810 811 813 814 815 816 817 817 818 819 819 820 821 822 823 823 823 823 824 824 824 824 824 824 824 824 824 824 824 824 824 823 823 823
732 732 740 755 765 778 792 793 794 791 776 768 771 777 782 773 746 727 725 721 715 715 714 715 721 726 727 730 735 739 742 744 746 749 751 752 753 755 758 761 763 765 767 769 772 774 776 778 779 781 783 786 788 790 793 794 796 799 801 803 804 806 807 808 810 811 812 814 814 815 816 817 818 819 819 820 821 822 822 822 822 823 823 823 823 823 823 823 823 824 824 823 823 823 823 823 823
730 725 735 747 743 745 763 772 771 770 771 774 776 771 761 747 728 716 718 718 716 717 717 719 725 725 726 732 735 737 739 740 742 745 746 747 749 752 755 758 760 762 764 766 768 770 772 774 776 778 780 783 785 788 790 792 795 797 799 801 803 804 806 807 809 810 811 812 813 814 815 816 817 818 819 820 820 821 821 821 821 822 822 822 822 822 822 822 822 823 823 823 822 822 822 822 822
729 730 736 734 724 727 749 766 764 764 772 774 769 760 749 742 732 721 721 722 721 722 721 722 723 723 727 731 732 734 735 736 738 739 740 743 746 749 752 754 757 759 761 762 763 765 767 769 772 775 778 780 783 785 787 790 793 795 797 799 801 803 804 806 807 809 810 811 812 813 814 815 816 817 818 818 819 819 819 819 820 820 820 821 821 820 821 821 821 821 821 822 822 821 821 821 821
721 730 725 720 725 728 737 758 771 776 777 768 762 757 751 754 748 729 724 728 726 723 719 719 721 723 727 727 727 730 729 730 732 734 736 739 742 745 747 750 753 754 756 757 759 761 764 766 769 772 774 776 778 781 784 788 791 793 796 797 799 801 803 805 806 808 809 809 810 811 813 814 814 815 816 817 818 818 818 818 818 819 819 819 819 819 819 819 820 820 820 820 820 820 820 820 819
706 713 707 715 737 743 741 753 767 777 780 769 760 756 751 751 743 727 725 728 726 723 719 719 722 723 722 722 724 726 726 729 731 732 735 737 738 741 743 746 749 751 753 754 757 760 762 764 766 768 770 772 775 779 782 785 788 791 793 795 797 799 802 804 805 807 808 808 809 810 811 812 813 814 814 815 816 816 816 816 816 817 817 817 817 817 818 818 818 819 819 818 818 819 818 818 818
700 705 707 712 724 732 736 741 746 758 773 772 762 758 749 737 726 716 714 716 719 722 721 719 717 714 713 716 721 723 724 727 728 729 731 732 734 736 738 741 744 746 749 752 756 759 760 762 765 767 770 772 775 777 779 782 785 788 791 793 795 798 800 802 804 805 807 807 808 809 810 811 812 813 813 813 814 814 814 814 814 815 815 816 816 816 816 817 817 817 817 817 817 817 817 816 816
711 716 721 719 717 722 728 734 735 739 756 766 764 760 743 720 712 707 702 706 713 715 714 713 710 709 711 714 716 719 721 722 723 724 726 727 729 732 734 738 740 743 747 751 754 756 758 761 763 765 768 771 773 775 776 779 782 785 788 790 793 796 798 800 802 804 805 806 807 809 810 811 811 812 812 811 812 812 812 812 813 813 814 814 814 815 815 815 815 815 815 815 815 815 815 815 815
705 711 715 714 715 723 733 743 740 731 739 750 755 756 736 709 705 702 696 701 708 707 706 707 707 708 710 711 711 713 716 717 718 719 720 723 725 728 732 736 740 744 746 749 751 754 756 759 760 763 766 767 769 772 774 777 780 783 786 788 791 794 796 798 800 802 803 805 806 808 809 810 810 810 810 810 810 810 810 810 811 812 813 813 813 813 814 814 814 813 813 813 813 813 813 813 813